#timestamp,LO_Frequency,Hit,StdDev 
1570140015.8,286047000.6,N
1570140035.6,286047001.8,N
1570140055.5,286047001.6,N
1570140075.3,286047001.7,N
1570140095.1,286047001.8,N
1570140115.9,286047002.0,N
1570140135.7,286046999.9,N
1570140155.5,286047000.3,N
1570140175.4,286047000.9,N
1570140195.2,286046998.7,N
1570140215.1,286047000.3,N
1570140216.0,286047000.3,N
1570140235.8,286047000.1,N
1570140255.6,286047002.0,N
1570140275.5,286047004.4,N
1570140295.3,286047003.9,N
1570140315.1,286047001.5,N
1570140335.9,286047004.0,N
1570140355.7,286047004.1,N
1570140375.6,286047003.9,N
1570140395.4,286047001.3,N
1570140415.2,286047002.0,N
1570140435.1,286047003.9,N
1570140436.0,286047003.9,N
1570140455.8,286047004.4,N
1570140475.7,286047003.6,N
1570140495.5,286047004.1,N
1570140515.3,286047001.7,N
1570140535.2,286047003.7,N
1570140555.0,286047006.0,Y
1570140555.9,286047006.0,P
1570140575.8,286047001.5,N
1570140595.6,286047002.3,N
1570140615.4,286047002.3,N
1570140635.3,286047001.9,N
1570140655.1,286047001.9,N
1570140675.8,286047002.0,N
1570140695.7,286047004.3,Y
1570140715.5,286047000.9,P
1570140735.4,286047000.3,N
1570140755.2,286046998.2,N
1570140775.0,286046997.3,N
1570140775.9,286046997.3,N
1570140795.8,286046997.7,N
1570140815.6,286046998.0,N
1570140835.5,286046996.0,N
1570140855.3,286046998.0,N
1570140875.1,286046997.3,N
1570140895.9,286046997.4,N
1570140915.7,286046999.2,N
1570140935.6,286046998.4,N
1570140955.4,286046999.1,N
1570140975.2,286046997.8,N
1570140995.1,286046995.0,Y
1570140996.0,286046995.0,P
1570141015.8,286046996.9,N
1570141035.6,286046999.0,N
1570141055.5,286047001.0,N
1570141075.3,286047000.4,N
1570141095.2,286047011.9,Y
1570141115.9,286047000.7,P
1570141135.7,286047000.8,N
1570141155.6,286046998.6,N
1570141175.4,286047000.9,N
1570141195.3,286047002.2,N
1570141215.1,286047003.6,N
1570141216.0,286047003.6,N
1570141235.8,286047003.6,N
1570141255.7,286047006.0,Y
1570141275.5,286047004.1,P
1570141295.4,286047003.6,N
1570141315.2,286047003.2,N
1570141335.0,286047004.2,Y
1570141335.9,286047004.2,P
1570141355.8,286047000.4,N
1570141375.6,286046998.1,N
1570141395.5,286046999.6,N
1570141415.3,286046998.5,N
1570141435.1,286047000.3,N
1570141455.9,286047000.7,N
1570141475.7,286047000.7,N
1570141495.6,286046999.9,N
1570141515.4,286046998.5,N
1570141535.2,286046998.9,N
1570141555.1,286046999.2,N
1570141556.0,286046999.2,N
1570141575.8,286046996.9,N
1570141595.6,286046997.0,N
1570141615.5,286046999.6,N
1570141635.3,286046999.2,N
1570141655.2,286046996.7,N
1570141675.9,286046997.8,N
1570141695.7,286046995.8,N
1570141715.6,286046995.0,N
1570141735.4,286046997.9,N
1570141755.2,286046995.3,N
1570141775.1,286046997.4,N
1570141776.0,286046997.4,N
1570141795.8,286046994.9,N
1570141815.7,286046995.0,N
1570141835.5,286046995.4,N
1570141855.3,286046996.2,N
1570141875.2,286046996.1,N
1570141895.0,286046994.9,N
1570141895.9,286046994.9,N
1570141915.8,286046993.7,Y
1570141935.6,286046994.9,P
1570141955.4,286046995.1,P
1570141975.3,286046995.5,P
1570141995.1,286046997.7,N
1570142015.9,286046998.0,N
1570142035.7,286046996.1,N
1570142055.5,286046993.4,Y
1570142075.4,286046998.2,P
1570142095.2,286046999.5,N
1570142115.0,286046996.7,N
1570142115.9,286046996.7,N
1570142135.8,286046999.2,N
1570142155.6,286046999.1,N
1570142175.5,286046996.5,N
1570142195.3,286046997.3,N
1570142215.1,286046997.2,N
1570142235.9,286046998.3,N
1570142255.7,286047001.1,N
1570142275.6,286047000.8,N
1570142295.4,286047001.0,N
1570142315.2,286046999.9,N
1570142335.1,286047000.1,N
1570142336.0,286047000.1,N
1570142355.8,286047002.7,N
1570142375.6,286046999.8,N
1570142395.5,286047002.7,N
1570142415.3,286047001.8,N
1570142435.2,286046999.7,N
1570142455.0,286047000.1,N
1570142455.9,286047000.1,N
1570142475.7,286047002.2,N
1570142495.6,286047000.2,N
1570142515.4,286046999.0,N
1570142535.3,286046999.3,N
1570142555.1,286046996.9,N
1570142556.0,286046996.9,N
1570142575.8,286046999.3,N
1570142595.7,286046995.3,N
1570142615.5,286046997.8,N
1570142635.4,286046997.1,N
1570142655.2,286046999.4,N
1570142675.0,286047001.1,N
1570142675.9,286047001.1,N
1570142695.8,286047001.0,N
1570142715.6,286047002.5,N
1570142735.5,286047002.5,N
1570142755.3,286047002.4,N
1570142775.1,286047000.0,N
1570142795.9,286047000.5,N
1570142815.7,286047000.2,N
1570142835.5,286047000.0,N
1570142855.4,286047011.9,Y
1570142875.2,286047000.9,P
1570142895.1,286047000.7,N
1570142896.0,286047000.7,N
1570142915.8,286047000.4,N
1570142935.6,286047000.6,N
1570142955.5,286047002.4,Y
1570142975.3,286046999.8,P
1570142995.2,286047002.8,P
1570143015.9,286047001.9,N
1570143035.7,286046999.7,N
1570143055.6,286046999.8,N
1570143075.4,286047000.0,N
1570143095.3,286046999.9,N
1570143115.1,286047000.8,N
1570143116.0,286047000.8,N
1570143135.8,286047001.0,N
1570143155.7,286046998.7,N
1570143175.5,286047000.7,N
1570143195.4,286047002.7,N
1570143215.2,286047000.0,N
1570143235.0,286047001.8,N
1570143235.9,286047001.8,N
1570143255.8,286047001.4,N
1570143275.6,286047001.3,N
1570143295.5,286047001.8,N
1570143315.3,286047001.5,N
1570143335.1,286047002.8,N
1570143355.9,286047002.4,N
1570143375.7,286047002.8,N
1570143395.5,286047000.2,N
1570143415.4,286047000.5,N
1570143435.2,286047000.3,N
1570143455.1,286047000.6,N
1570143456.0,286047000.6,N
1570143475.8,286046999.2,N
1570143495.6,286046998.8,N
1570143515.5,286047001.1,N
1570143535.3,286047001.1,N
1570143555.1,286046998.2,N
1570143575.9,286046999.0,N
1570143595.7,286047001.0,N
